Lid_Strength_Index
10 9 8 6 3 2 2 2 2 1 1 1 2 2 2 1 1 0 -0 0 0 1 1 1 1 2 2 2 2 2 3 3 3 3 3 3 2 2 2 3 2 2 1
10 8 6 3 3 3 3 3 2 2 1 1 1 1 1 1 1 0 0 0 0 1 1 1 2 2 2 2 2 2 3 2 2 3 4 5 4 4 4 4 3 3 2
8 7 4 4 4 3 3 2 2 2 2 2 1 1 1 1 2 1 1 1 0 1 1 1 2 2 2 3 2 2 2 3 3 2 3 6 7 5 5 5 4 3 3
7 6 5 4 4 4 3 3 1 2 2 2 1 2 3 3 2 2 1 1 1 1 2 2 2 2 2 2 2 2 2 2 3 3 2 3 4 6 7 5 5 4 4
7 5 5 3 4 3 3 3 2 1 2 2 1 2 2 2 2 2 2 2 2 1 1 2 1 2 1 2 2 3 2 2 3 3 3 3 3 4 6 8 6 5 4
6 5 4 4 3 2 2 2 2 2 2 1 1 2 2 3 3 3 3 2 2 3 2 2 2 2 2 3 3 3 3 3 2 2 3 3 4 4 5 7 7 6 5
6 5 5 5 4 4 4 3 2 2 2 1 1 2 3 3 3 3 4 3 4 4 3 3 3 3 3 2 2 3 2 2 2 2 2 2 3 4 4 6 7 7 6
5 6 6 6 6 6 6 6 2 3 2 2 2 2 3 3 3 3 3 3 4 4 3 3 3 2 2 2 2 2 2 2 2 2 2 2 2 3 4 5 6 7 7
8 8 8 7 8 7 7 7 6 5 4 4 3 2 2 3 3 3 3 3 3 3 3 2 2 2 2 2 2 2 2 2 2 2 2 2 2 2 3 3 3 4 8
10 10 10 10 10 10 10 9 9 8 8 6 6 4 2 2 2 2 2 2 2 2 2 2 2 2 2 2 2 1 2 2 2 2 2 2 2 2 3 3 3 3 5
11 11 11 11 11 12 11 11 11 11 10 9 9 8 7 6 4 3 3 2 2 2 1 2 2 2 2 2 2 2 2 2 2 2 2 2 2 3 2 4 4 5 6
13 13 13 12 12 12 11 11 10 10 10 10 9 9 9 8 7 7 6 5 4 2 1 1 1 1 1 1 2 2 2 2 2 2 3 3 3 4 3 4 5 5 6
14 14 13 12 12 11 11 11 10 10 10 9 9 9 9 9 9 8 7 7 6 5 3 2 2 2 2 2 2 1 1 2 2 3 3 3 3 5 5 5 5 6 7
13 13 13 13 13 12 11 11 11 10 10 10 10 10 10 9 9 8 8 7 7 6 5 4 2 2 2 2 2 3 3 3 3 4 4 4 4 4 6 6 6 8 8
13 13 13 13 13 13 13 12 12 11 11 11 11 11 10 10 9 9 9 9 8 8 7 6 5 4 3 2 2 2 2 4 4 4 5 5 5 6 5 6 8 8 9
14 13 13 14 14 14 13 12 12 12 11 12 11 11 10 10 11 10 10 10 10 9 9 8 7 7 5 4 3 3 2 3 3 5 6 5 7 6 6 6 7 7 8
14 14 14 14 14 13 13 13 13 12 12 12 12 11 11 12 11 11 11 11 11 10 10 10 9 8 7 5 3 3 3 3 4 4 5 6 7 6 6 6 6 7 6
14 14 14 14 14 13 13 13 13 14 13 13 13 12 13 13 12 12 12 11 11 11 11 10 10 9 8 6 4 4 4 4 4 4 5 6 7 7 6 7 8 8 8
14 14 14 14 14 14 14 14 15 15 14 14 14 13 13 13 13 13 13 12 12 12 11 10 9 8 8 6 5 4 4 4 4 4 6 6 7 6 6 7 9 10 10
14 14 14 14 15 15 15 15 15 15 15 14 14 14 14 14 14 13 13 13 13 12 11 10 7 6 6 5 4 3 4 4 4 4 5 5 6 6 5 8 9 10 11
15 15 16 16 16 15 15 15 15 15 14 14 14 14 14 14 14 13 13 13 13 12 11 9 7 6 5 5 3 3 3 4 4 4 5 5 5 5 5 6 8 9 12
15 14 15 16 15 15 15 15 15 14 14 14 14 14 14 14 14 14 14 13 12 11 11 10 8 6 5 4 3 2 2 2 3 4 4 5 5 5 5 6 7 8 10
15 15 15 16 15 15 15 16 15 15 14 14 15 14 14 14 14 14 14 14 12 11 10 10 9 8 6 5 2 2 1 1 2 3 4 4 5 6 5 6 7 8 12
16 16 16 17 17 16 16 16 16 15 15 16 15 15 15 15 15 14 13 12 11 10 10 9 9 8 7 6 5 2 3 2 2 2 3 4 4 5 5 7 7 11 12
16 16 17 17 17 17 17 16 16 16 17 16 16 15 15 15 15 14 12 11 9 8 8 8 7 8 8 7 6 5 4 3 2 3 5 6 6 6 8 9 9 11 12
16 16 17 17 17 17 17 16 16 16 17 16 16 15 15 15 15 14 12 8 7 6 6 7 7 8 7 6 6 5 5 3 2 5 6 7 6 7 8 10 11 11 12